Weather History for Gainesville, GA

Change the Weather History Date:

Saturday, February 16, 2013

  Actual Average Record
Temperature  
Mean Temperature 35 °F 46 °F  
Max Temperature 42 °F 55 °F 77 °F (1989)
Min Temperature 28 °F 36 °F 11 °F (1958)
Degree Days  
Heating Degree Days 30 19  
Month to date heating degree days 333  
Since 1 July heating degree days 2251  
Moisture  
Dew Point 19 °F    
Average Humidity 51    
Maximum Humidity 73    
Minimum Humidity 29    
Precipitation  
Precipitation 0.00 in 0.18 in 1.70 in (1966)
Month to date precipitation 2.57  
Year to date precipitation 7.60  
Snow  
Snow 0.00 in - - ()
Month to date snowfall  
Since 1 July snowfall  
Snow Depth -    
Sea Level Pressure  
Sea Level Pressure 30.00 in    
Wind  
Wind Speed 9 mph (WNW)    
Max Wind Speed 22 mph    
Max Gust Speed 32 mph    
Visibility 10 miles    
Events      
T = Trace of Precipitation, MM = Missing Value Source: NWS Daily Summary

Daily Weather History Graph

Daily Weather History Graph

Search for Another Location

Airport:

Trip Planner

Search our weather history database for the weather conditions in past years. The results will help you decide how hot, cold, wet, or windy it might be!

Date:

Astronomy

Feb. 16, 2013 Rise Set
Actual Time 7:19 AM EST 6:20 PM EST
Civil Twilight 6:53 AM EST 6:45 PM EST
Nautical Twilight 6:24 AM EST 7:15 PM EST
Astronomical Twilight 5:54 AM EST 7:44 PM EST
Moon 10:50 AM EST (2/16) 12:00 AM EST (2/16)
Length of Visible Light 11h 52m
Length of Day
11h 01m
Waxing Crescent, 39% of the Moon is Illuminated
Feb 16
Waxing Crescent
Feb 17
First Quarter
Feb 25
Full
Mar 4
Last Quarter
Mar 11
New

Hourly Weather History & Observations

Time (EST) Temp. Windchill Dew Point Humidity Pressure Visibility Wind Dir Wind Speed Gust Speed Precip Events Conditions
12:53 AM 39.9 °F 35.8 °F 32.0 °F 73% 29.98 in 10.0 mi WNW 5.8 mph - N/A   Mostly Cloudy
1:53 AM 39.9 °F 36.7 °F 28.9 °F 65% 29.97 in 10.0 mi WNW 4.6 mph - N/A   Mostly Cloudy
2:53 AM 39.9 °F 36.7 °F 27.0 °F 60% 29.96 in 10.0 mi West 4.6 mph - N/A   Overcast
3:53 AM 39.0 °F 35.7 °F 27.0 °F 62% 29.95 in 10.0 mi WNW 4.6 mph - N/A   Overcast
4:53 AM 37.9 °F 33.5 °F 27.0 °F 65% 29.94 in 10.0 mi NW 5.8 mph - N/A   Overcast
5:53 AM 37.9 °F 31.5 °F 27.0 °F 65% 29.95 in 10.0 mi NW 9.2 mph - N/A   Overcast
6:53 AM 37.0 °F 32.4 °F 26.1 °F 65% 29.96 in 10.0 mi WNW 5.8 mph - N/A   Overcast
7:53 AM 37.0 °F 31.6 °F 25.0 °F 62% 29.96 in 10.0 mi WNW 6.9 mph - N/A   Mostly Cloudy
8:53 AM 37.0 °F 31.6 °F 26.1 °F 65% 29.98 in 10.0 mi West 6.9 mph - N/A   Overcast
9:53 AM 36.0 °F 28.0 °F 28.0 °F 73% 29.99 in 10.0 mi WNW 11.5 mph - N/A   Partly Cloudy
10:53 AM 37.9 °F 30.5 °F 25.0 °F 60% 29.98 in 10.0 mi West 11.5 mph 19.6 mph N/A   Clear
11:53 AM 41.0 °F 33.1 °F 19.0 °F 41% 29.96 in 10.0 mi WNW 15.0 mph 26.5 mph N/A   Mostly Cloudy
12:53 PM 39.9 °F 31.4 °F 15.1 °F 36% 29.95 in 10.0 mi West 16.1 mph 25.3 mph N/A   Scattered Clouds
1:53 PM 42.1 °F 34.5 °F 12.0 °F 29% 29.93 in 10.0 mi West 15.0 mph 25.3 mph N/A   Scattered Clouds
2:53 PM 39.0 °F 30.3 °F 10.9 °F 32% 29.94 in 10.0 mi WNW 16.1 mph 32.2 mph N/A   Mostly Cloudy
3:53 PM 39.0 °F 29.0 °F 10.9 °F 32% 29.96 in 10.0 mi WNW 20.7 mph 32.2 mph N/A   Mostly Cloudy
4:53 PM 36.0 °F 24.7 °F 9.0 °F 33% 29.99 in 10.0 mi WNW 21.9 mph 32.2 mph N/A   Scattered Clouds
5:53 PM 35.1 °F 23.5 °F 9.0 °F 34% 30.01 in 10.0 mi NW 21.9 mph 31.1 mph N/A   Mostly Cloudy
6:53 PM 32.0 °F 21.2 °F 10.9 °F 42% 30.05 in 10.0 mi NW 16.1 mph 24.2 mph N/A   Clear
7:53 PM 30.9 °F 22.8 °F 12.9 °F 47% 30.07 in 10.0 mi NW 9.2 mph - N/A   Clear
8:53 PM 30.9 °F 22.2 °F 12.0 °F 46% 30.09 in 10.0 mi WNW 10.4 mph - N/A   Clear
9:53 PM 30.0 °F 20.5 °F 12.0 °F 47% 30.11 in 10.0 mi NW 11.5 mph 21.9 mph N/A   Clear
10:53 PM 28.9 °F 18.2 °F 12.0 °F 49% 30.12 in 10.0 mi NW 13.8 mph - N/A   Clear
11:53 PM 28.0 °F 19.3 °F 12.0 °F 51% 30.12 in 10.0 mi NW 9.2 mph 18.4 mph N/A   Clear